Theta_e
300 303 303 304 304 304 301 292 282 297 301 285 285 282 281 289 286 289 290 287 285 284 287 286 286 287 289 296 296 291 294 289 283 286 291 292 292 290 290 283 281 284 281 279
298 303 303 303 304 303 295 285 287 298 296 280 280 283 285 286 286 287 286 287 289 288 287 285 288 289 293 296 295 292 294 288 281 283 287 291 289 290 291 291 287 282 277 279
301 301 302 302 303 303 295 285 281 288 290 288 282 278 279 282 288 287 289 286 289 288 285 288 286 288 293 295 296 298 296 288 283 280 282 287 287 290 291 290 283 283 282 282
301 302 302 302 303 303 294 288 283 281 280 282 283 281 283 281 282 287 288 286 287 286 284 285 286 288 289 293 296 296 294 286 286 286 287 286 288 288 290 287 288 284 284 286
301 302 302 302 303 303 290 284 282 285 282 283 282 283 280 282 282 285 284 283 286 287 285 287 283 287 289 289 292 293 295 285 287 283 287 287 286 289 289 289 288 288 288 287
302 302 301 302 302 300 289 288 288 287 284 282 281 279 280 282 286 287 288 287 285 285 287 292 293 292 292 291 291 290 291 286 285 282 285 284 280 284 287 288 290 289 285 289
302 302 302 302 301 300 292 291 287 281 277 281 281 282 283 284 285 283 287 288 286 289 294 295 295 294 293 293 294 295 290 287 284 279 282 276 282 286 290 289 288 289 283 283
303 302 303 302 301 301 294 295 290 281 271 280 281 282 283 286 287 285 287 289 291 295 292 286 285 284 284 285 288 293 294 287 281 279 279 279 280 284 285 286 282 279 280 279
302 302 302 302 301 301 298 294 294 289 281 278 283 281 283 279 276 282 286 288 291 294 288 285 279 278 279 281 284 288 292 291 285 278 271 269 279 281 282 286 278 277 279 277
302 302 302 303 302 301 298 295 296 291 283 285 285 279 282 283 281 281 285 285 288 291 284 281 279 278 279 280 280 283 285 285 282 277 271 275 279 278 280 276 278 275 275 274
303 303 303 304 304 304 299 295 297 291 285 285 287 287 284 284 284 282 286 287 286 285 283 281 278 278 279 278 282 284 284 282 281 277 270 274 272 276 279 274 274 273 271 271
304 304 305 305 304 304 301 292 295 295 288 286 290 289 289 288 287 286 286 286 286 288 282 275 276 273 275 273 278 283 281 281 278 278 275 270 270 270 272 274 272 270 270 269
304 305 305 305 305 304 299 292 292 292 285 286 286 285 287 290 288 288 287 286 291 288 287 281 277 275 280 277 275 278 278 276 275 272 269 269 269 269 269 269 268 268 268 267
305 305 305 305 305 304 298 292 290 290 284 282 283 291 286 290 291 291 292 292 293 292 288 283 279 279 282 279 280 277 271 274 272 268 268 268 268 268 268 267 267 266 266 266
306 305 305 305 305 299 292 289 288 288 286 276 282 285 288 289 291 289 292 292 288 284 282 280 279 281 281 278 275 267 263 270 272 272 269 268 268 267 268 266 264 265 265 264
305 305 304 304 300 298 294 286 291 289 288 282 276 285 284 285 288 287 284 285 283 283 279 276 277 279 280 267 265 264 263 262 261 262 263 264 263 263 265 263 263 264 264 264
303 302 302 299 295 288 284 285 285 290 286 282 278 278 283 283 285 284 284 281 277 279 277 277 278 276 275 267 266 262 262 261 262 263 264 261 260 259 261 261 262 261 261 261
300 300 299 297 294 291 283 285 285 290 286 280 273 273 279 282 281 280 282 277 277 273 272 272 272 271 266 260 263 261 260 260 259 258 259 260 259 258 257 256 256 257 257 258
298 297 296 290 284 279 282 289 286 281 282 274 268 268 270 278 280 281 279 279 272 270 269 267 268 266 265 261 262 260 259 258 257 256 256 256 256 255 253 252 251 252 253 253
292 288 286 280 278 287 287 281 279 274 270 270 266 269 267 276 277 276 277 275 271 270 267 267 260 259 260 258 256 258 256 256 256 254 251 250 250 252 251 250 249 251 251 250
284 280 278 282 285 282 276 270 270 268 267 264 264 267 270 274 274 273 276 272 270 269 267 266 260 263 260 255 254 255 255 254 249 249 250 250 252 252 250 248 247 247 248 249
283 279 278 276 270 271 271 264 264 262 261 260 263 265 266 269 273 276 274 271 269 265 260 264 263 264 257 254 253 251 251 251 249 246 250 247 250 248 247 247 247 248 249 249
278 273 268 271 265 265 266 261 259 260 258 259 260 266 267 272 274 272 272 267 260 259 263 262 263 258 255 253 251 247 244 244 245 246 245 245 246 245 247 250 249 248 247 247
268 269 264 261 259 254 254 255 256 258 260 258 259 262 267 268 270 268 269 260 261 259 259 262 262 257 255 250 247 249 248 246 246 246 245 247 248 249 248 248 248 249 250 248
262 263 259 259 257 257 257 255 254 256 255 257 259 261 265 265 266 263 259 259 258 258 263 260 254 250 253 250 246 247 247 246 246 246 247 248 248 248 249 249 247 246 244 244
257 254 256 250 253 253 251 248 249 254 254 254 253 254 259 257 259 261 261 262 261 263 255 251 249 250 249 248 248 249 248 249 246 247 248 249 248 248 249 244 243 244 243 245
254 251 246 250 249 251 249 248 251 255 250 252 249 258 258 256 256 258 254 260 260 255 250 246 249 253 251 249 249 248 248 249 248 245 244 246 243 242 244 247 247 242 245 243
Wind_Speed
22 29 26 27 26 23 19 5 5 8 14 11 5 13 7 11 3 3 8 2 7 11 16 16 19 20 16 17 21 24 13 3 6 13 1 4 9 13 15 8 8 3 1 6
25 29 26 25 25 25 7 5 3 6 12 10 4 5 5 4 8 9 8 11 5 4 14 11 22 21 11 15 20 22 15 7 4 4 2 2 10 13 13 14 3 7 5 6
18 23 24 23 26 27 6 3 5 5 7 3 4 6 5 5 4 4 2 5 8 9 10 9 11 13 6 14 18 18 23 5 8 11 6 8 10 16 17 14 7 9 10 2
24 22 22 23 25 26 6 3 4 4 7 11 4 4 9 10 5 7 9 6 16 18 12 8 12 9 18 9 20 19 14 13 9 5 4 4 13 19 17 13 8 6 4 10
24 24 23 24 25 24 4 4 5 2 6 8 13 13 6 18 7 11 10 11 10 6 14 9 9 7 6 13 16 17 11 6 10 5 4 4 5 17 20 24 18 18 5 6
23 22 23 27 25 19 3 2 3 4 10 9 11 9 9 13 7 6 11 17 4 13 21 13 8 6 6 7 14 18 14 8 8 12 9 6 3 15 20 17 15 16 14 5
25 24 24 25 24 23 4 4 3 4 4 11 18 12 12 12 17 4 4 9 18 14 6 6 4 6 8 7 9 12 14 9 5 4 8 9 4 7 14 16 7 5 7 4
27 25 24 22 25 23 5 2 2 4 3 4 7 4 6 5 7 8 3 7 5 9 9 4 5 3 3 5 3 15 11 7 4 6 7 5 3 6 9 10 6 1 10 8
27 25 24 24 23 25 8 3 3 3 7 7 8 7 8 4 4 3 5 3 1 3 3 3 9 5 3 6 5 1 4 7 4 4 6 10 6 4 4 2 3 4 7 7
26 24 24 26 28 29 10 3 2 3 4 1 5 5 12 6 3 3 2 2 2 5 3 3 3 3 2 8 11 8 6 5 9 5 3 6 2 4 5 8 4 6 5 6
27 26 26 27 27 29 14 3 3 4 2 3 1 2 5 4 5 6 5 3 3 2 4 4 3 2 4 3 0 6 7 8 4 4 3 8 7 3 5 6 6 9 9 8
28 27 26 27 27 30 12 3 2 5 4 3 1 2 2 2 3 6 3 6 5 4 5 2 4 2 1 3 4 2 3 3 7 2 3 5 8 8 7 4 9 5 8 8
29 27 27 28 30 28 10 4 4 5 3 3 2 2 6 3 4 3 4 0 3 2 2 6 3 4 3 4 4 5 2 4 5 5 3 4 6 9 10 10 12 10 8 7
29 29 31 30 30 29 7 4 1 4 4 3 2 3 3 10 10 4 2 3 5 2 1 4 2 4 1 1 3 3 0 3 7 5 5 5 3 7 8 10 10 9 9 8
32 31 30 28 29 19 12 4 2 1 5 5 1 1 4 8 5 12 6 7 5 3 3 3 2 2 3 2 3 1 2 3 5 5 8 3 6 9 8 9 8 7 7 7
28 27 27 27 27 18 4 3 2 4 3 6 2 2 5 7 8 12 13 7 4 4 3 2 2 1 2 3 4 2 2 3 1 4 5 13 14 8 7 9 7 7 7 6
30 28 28 24 20 7 6 2 4 10 0 5 3 2 3 4 2 3 4 3 3 4 2 3 2 3 4 2 3 7 6 6 9 10 10 8 3 5 5 8 7 7 7 6
29 26 27 25 26 15 6 6 9 3 6 4 4 2 3 6 3 3 3 3 3 7 2 2 3 2 3 1 4 9 7 7 6 6 6 7 11 8 6 4 4 6 5 3
27 28 26 6 8 4 2 7 5 7 7 5 4 3 3 6 2 2 3 1 4 1 3 2 0 1 3 2 10 10 7 4 10 7 9 8 8 8 5 4 4 4 2 1
9 8 6 4 2 7 4 9 8 10 6 6 4 2 2 3 3 2 1 2 2 3 2 2 4 1 1 2 1 7 7 10 10 9 2 1 3 5 4 4 3 3 3 2
5 4 3 1 6 2 5 5 6 4 5 5 3 4 3 5 2 1 2 2 1 3 2 1 2 2 3 4 6 5 6 6 3 2 2 4 6 7 6 4 3 3 3 3
4 8 6 4 7 4 7 3 2 6 1 4 3 3 3 4 2 0 3 2 1 2 2 3 2 2 5 7 6 4 5 6 5 2 7 4 6 5 5 4 3 4 4 3
4 8 8 6 6 9 4 2 1 2 3 4 4 1 2 2 1 3 2 5 1 1 4 3 3 3 5 5 5 3 2 4 4 3 3 3 3 3 4 4 4 2 1 2
8 6 8 6 4 2 1 1 0 2 2 4 3 3 2 2 3 2 4 1 0 4 3 5 3 7 9 6 3 5 5 4 4 4 3 3 3 2 3 4 3 3 1 1
7 6 6 4 1 1 1 1 2 2 2 3 2 2 1 3 4 3 4 4 2 4 5 4 3 4 9 7 4 4 5 5 4 3 4 4 4 3 2 3 2 3 2 2
7 10 5 3 3 4 3 2 2 1 3 2 2 1 4 2 3 3 3 5 5 4 4 2 2 5 5 5 6 6 5 6 5 5 5 4 5 5 5 2 3 4 4 5
7 3 3 3 2 2 3 2 3 2 3 1 3 5 4 1 5 2 3 5 4 3 3 2 4 9 9 7 6 6 7 7 6 4 4 4 2 3 1 3 4 5 6 5
Wind_Direction
232 201 192 186 185 177 168 141 176 173 158 196 196 205 160 185 257 195 222 137 165 189 197 203 206 204 202 190 185 192 179 228 180 200 277 208 212 204 206 220 218 256 161 265
218 184 181 180 182 167 135 137 129 181 166 201 178 121 180 211 157 203 189 216 212 191 188 208 209 222 204 185 176 180 165 199 166 181 291 176 218 208 209 215 108 204 160 247
184 178 181 179 179 166 123 133 177 154 193 186 165 154 155 185 207 174 125 206 170 197 229 208 191 224 220 191 199 190 168 169 207 221 193 134 204 199 213 201 223 198 225 248
183 182 180 179 178 175 111 210 192 193 162 183 142 118 181 178 168 191 168 214 200 206 205 226 215 207 210 195 217 208 180 219 200 209 176 151 189 192 193 203 213 206 223 225
189 182 182 178 180 166 110 166 151 107 142 163 157 179 189 197 174 170 196 227 187 188 211 205 201 170 206 200 199 196 204 225 187 206 225 178 197 207 203 210 221 230 204 211
190 186 186 175 176 178 126 152 290 106 160 145 184 211 185 190 185 227 205 203 137 193 211 198 219 214 217 204 185 191 187 175 164 220 176 128 249 215 202 210 208 206 213 180
195 187 187 180 182 179 152 171 126 110 158 166 195 194 187 174 187 181 222 163 203 232 129 114 119 202 299 195 216 199 186 169 168 167 144 214 229 207 188 196 205 134 90 93
191 189 192 187 178 183 182 154 174 129 123 158 159 197 149 128 174 211 253 203 203 158 130 144 142 163 155 216 171 183 181 162 160 161 191 318 307 187 155 170 199 157 133 120
193 191 189 191 179 179 185 155 220 119 119 214 143 181 197 152 151 137 239 256 221 103 110 147 203 217 200 147 173 150 159 193 149 155 147 194 224 136 27 150 254 166 137 140
193 191 190 190 185 181 193 227 166 98 118 55 143 165 192 148 139 126 107 240 135 189 139 91 210 183 314 166 165 169 178 181 199 149 192 285 5 333 311 125 219 118 107 108
193 193 190 188 187 183 177 154 116 122 93 93 268 304 145 133 183 177 160 113 225 88 139 133 239 155 224 91 322 160 169 171 169 97 108 253 11 321 188 110 79 112 96 82
189 187 183 181 171 169 160 105 45 88 87 107 154 102 84 327 327 140 169 147 240 174 109 153 136 159 110 164 168 320 174 164 157 144 180 56 14 73 46 96 120 97 96 81
193 192 184 175 176 173 154 122 143 119 116 31 68 355 318 16 15 300 152 241 195 282 159 161 160 131 170 163 217 105 64 5 92 126 116 106 98 77 66 72 95 93 84 81
176 174 175 173 170 168 122 96 11 80 105 105 327 309 29 311 314 206 196 90 90 143 16 66 110 113 9 154 126 107 304 57 112 76 119 106 95 101 110 97 91 90 79 75
172 169 165 165 161 121 86 87 46 321 124 148 137 277 356 344 35 55 66 106 206 62 65 52 59 80 130 43 64 92 342 123 166 198 157 110 120 130 121 110 99 86 100 91
137 138 135 135 133 118 114 55 18 20 46 104 93 285 0 351 17 55 44 27 29 80 106 117 101 41 69 102 192 102 92 36 249 150 66 89 105 91 98 104 103 103 99 90
105 106 108 100 81 72 60 65 294 330 247 83 86 56 7 335 13 39 50 49 65 58 78 43 62 57 61 90 186 137 102 89 87 105 105 69 345 138 99 113 111 96 87 75
98 96 94 93 103 122 39 357 356 198 86 65 94 312 31 9 27 82 3 52 35 25 86 38 44 7 71 91 136 124 119 102 65 36 52 88 114 104 89 77 82 94 87 55
109 115 125 82 36 60 209 318 27 49 65 99 59 111 218 330 65 55 64 94 74 305 73 51 208 289 190 162 160 159 168 177 139 81 67 82 105 114 102 86 75 119 151 353
61 56 44 49 11 315 329 5 23 21 17 37 74 286 254 330 34 55 100 16 88 79 17 327 56 267 338 1 63 119 133 135 131 105 101 115 114 148 142 178 183 166 162 201
45 65 78 180 316 48 42 57 43 335 37 13 324 14 14 9 57 98 356 142 84 93 273 128 319 301 156 116 89 92 111 132 128 153 127 118 132 152 160 183 207 192 203 205
144 116 90 58 28 38 84 53 23 39 102 326 344 345 354 301 305 83 3 109 72 172 335 76 329 156 130 144 149 149 137 133 118 90 125 115 121 146 148 161 187 203 216 240
53 53 55 21 330 46 50 140 360 88 339 355 337 68 327 278 317 69 22 63 154 265 35 210 235 122 158 161 137 110 56 86 96 84 75 115 147 154 169 191 220 202 233 258
59 48 47 51 9 43 214 331 17 17 323 341 311 286 10 306 52 349 78 348 6 48 45 246 223 184 171 156 149 127 185 173 156 172 175 174 164 203 224 220 193 160 230 266
68 44 61 60 136 90 58 40 351 311 322 327 324 281 333 19 89 31 108 37 356 195 226 233 231 159 152 162 158 150 146 161 178 178 175 191 188 198 253 247 219 200 231 238
64 43 87 321 51 336 360 11 302 339 343 355 55 55 62 12 118 80 193 111 208 237 220 237 116 131 137 151 166 182 169 169 177 181 185 177 179 196 220 286 255 227 205 225
51 33 15 88 72 166 226 168 252 343 65 226 98 67 203 73 48 19 198 187 218 209 244 224 194 170 174 163 158 172 175 179 182 169 179 198 165 123 66 275 267 220 218 221